Weather History for Dryden, ON

Change the Weather History Date:

Tuesday, August 20, 2013

  Actual Average Record
Temperature  
Mean Temperature 78 °F -  
Max Temperature 89 °F 72 °F 89 °F (2013)
Min Temperature 64 °F 52 °F 39 °F (2004)
Cooling Degree Days 12    
Growing Degree Days 28 (Base 50)    
Moisture  
Dew Point 64 °F    
Average Humidity 67    
Maximum Humidity 94    
Minimum Humidity 31    
Precipitation  
Precipitation 0.00 in 0.11 in - ()
Sea Level Pressure  
Sea Level Pressure 29.73 in    
Wind  
Wind Speed 10 mph ()    
Max Wind Speed 39 mph    
Max Gust Speed 50 mph    
Visibility 8.0 miles    
Events Rain , Thunderstorm    
Averages and records for this station are not official NWS values.
T = Trace of Precipitation, MM = Missing Value Source: Averaged Metar Reports

Daily Weather History Graph

Daily Weather History Graph

Search for Another Location

Airport:

Trip Planner

Search our weather history database for the weather conditions in past years. The results will help you decide how hot, cold, wet, or windy it might be!

Date:

Astronomy

Aug. 20, 2013 Rise Set
Actual Time 6:08 AM CDT 8:18 PM CDT
Civil Twilight 5:33 AM CDT 8:53 PM CDT
Nautical Twilight 4:50 AM CDT 9:36 PM CDT
Astronomical Twilight 4:00 AM CDT 10:26 PM CDT
Moon 7:43 PM CDT (8/20) 5:42 AM CDT (8/20)
Length of Visible Light 15h 19m
Length of Day
14h 09m
Full, 100% of the Moon is Illuminated
Aug 20
Full
Aug 20
Full
Aug 28
Last Quarter
Sep 5
New
Sep 12
First Quarter

Hourly Weather History & Observations

Time (CDT) Temp. Heat Index Dew Point Humidity Pressure Visibility Wind Dir Wind Speed Gust Speed Precip Events Conditions
12:00 AM 71.6 °F - 62.6 °F 73% 29.78 in 9.0 mi SSW 10.4 mph - N/A   Clear
1:00 AM 71.6 °F - 62.6 °F 73% 29.78 in 9.0 mi SSW 9.2 mph - N/A   Clear
2:00 AM 69.8 °F - 64.4 °F 83% 29.78 in 9.0 mi SSW 9.2 mph - N/A   Clear
3:00 AM 69.8 °F - 66.2 °F 88% 29.76 in 9.0 mi SSW 10.4 mph - N/A   Clear
4:00 AM 69.8 °F - 66.2 °F 88% 29.75 in 9.0 mi South 11.5 mph - N/A   Clear
5:00 AM 69.8 °F - 66.2 °F 88% 29.75 in 9.0 mi SSW 11.5 mph - N/A   Mostly Cloudy
6:00 AM 69.8 °F - 68.0 °F 94% 29.75 in 9.0 mi SSW 10.4 mph - N/A   Mostly Cloudy
7:00 AM 69.8 °F - 68.0 °F 94% 29.76 in 9.0 mi SSW 8.1 mph - N/A   Mostly Cloudy
8:00 AM 71.6 °F - 68.0 °F 88% 29.75 in 9.0 mi SSW 10.4 mph - N/A   Scattered Clouds
9:00 AM 75.2 °F - 68.0 °F 78% 29.76 in 9.0 mi SW 12.7 mph 18.4 mph N/A   Clear
9:16 AM 75.2 °F - 68.0 °F 78% 29.76 in 9.0 mi SW 12.7 mph - N/A   Mostly Cloudy
10:00 AM 77.0 °F - 68.0 °F 74% 29.76 in 9.0 mi WSW 12.7 mph 18.4 mph N/A   Mostly Cloudy
10:19 AM 77.0 °F - 68.0 °F 74% 29.76 in 9.0 mi WSW 15.0 mph - N/A   Scattered Clouds
11:00 AM 80.6 °F 83.2 °F 68.0 °F 65% 29.77 in 9.0 mi SW 12.7 mph 18.4 mph N/A   Clear
12:00 PM 82.4 °F 85.4 °F 68.0 °F 62% 29.76 in 9.0 mi WSW 12.7 mph 19.6 mph N/A   Clear
1:00 PM 86.0 °F 88.2 °F 66.2 °F 51% 29.75 in 9.0 mi West 8.1 mph - N/A   Clear
2:00 PM 87.8 °F 89.4 °F 64.4 °F 46% 29.75 in 9.0 mi WSW 6.9 mph - N/A   Scattered Clouds
3:00 PM 87.8 °F 88.5 °F 62.6 °F 43% 29.74 in 9.0 mi West 10.4 mph - N/A   Partly Cloudy
4:00 PM 89.6 °F 88.1 °F 57.2 °F 33% 29.73 in 9.0 mi WSW 15.0 mph - N/A   Clear
5:00 PM 89.6 °F 88.1 °F 57.2 °F 33% 29.72 in 9.0 mi West 11.5 mph - N/A   Clear
6:00 PM 89.6 °F 87.7 °F 55.4 °F 31% 29.71 in 9.0 mi SW 11.5 mph - N/A   Clear
7:00 PM 86.0 °F 84.2 °F 53.6 °F 33% 29.71 in 9.0 mi SW 9.2 mph - N/A   Clear
8:00 PM 82.4 °F - 51.8 °F 35% 29.71 in 9.0 mi SW 8.1 mph - N/A   Clear
9:00 PM 78.8 °F - 51.8 °F 39% 29.70 in 9.0 mi SW 5.8 mph - N/A   Clear
10:00 PM 78.8 °F - 57.2 °F 47% 29.70 in 9.0 mi South 6.9 mph - N/A   Clear
11:00 PM 78.8 °F - 66.2 °F 65% 29.67 in 9.0 mi SSE 6.9 mph - N/A   Unknown
11:30 PM 78.8 °F - 68.0 °F 69% 29.66 in 9.0 mi SSE 8.1 mph - N/A Thunderstorm Unknown
11:33 PM - - - N/A% - 9.0 mi North - - N/A   Unknown
11:34 PM 77.0 °F - 68.0 °F 74% 29.67 in 9.0 mi North - - N/A Thunderstorm Unknown
11:36 PM 77.0 °F - 68.0 °F 74% 29.67 in 8.0 mi South 13.8 mph - N/A Rain , Thunderstorm Rain
11:39 PM 73.4 °F - 62.6 °F 69% 29.70 in 4.0 mi North - - N/A Rain , Thunderstorm Rain
11:40 PM 69.8 °F - 62.6 °F 78% 29.70 in 3.0 mi WSW 39.1 mph 49.5 mph N/A Rain , Thunderstorm Heavy Rain
11:42 PM 66.2 °F - 62.6 °F 88% 29.70 in 3.0 mi WSW 28.8 mph 49.5 mph N/A Thunderstorm Mist
11:47 PM - - - N/A% - 3.0 mi North - - N/A Thunderstorm Thunderstorm
11:49 PM - - - N/A% - 3.0 mi North - - N/A   Unknown
11:50 PM - - - N/A% - 4.0 mi North - - N/A Thunderstorm Thunderstorm
11:51 PM - - - N/A% - 5.0 mi North - - N/A   Unknown
11:52 PM - - - N/A% - 7.0 mi North - - N/A Thunderstorm Thunderstorm
11:53 PM - - - N/A% - 8.0 mi North - - N/A   Unknown
11:54 PM - - - N/A% - 9.0 mi North - - N/A Thunderstorm Thunderstorm
11:55 PM - - - N/A% - 9.0 mi North - - N/A   Unknown
11:56 PM 64.4 °F - 60.8 °F 88% 29.67 in 9.0 mi North - - N/A Thunderstorm Thunderstorm